Regional Weather Roundup
Issued by NWS Goodland, KS

Home | Current Version | Previous Version | Text Only | Print | Product List | Glossary Off
Versions: 1 2 3 4 5 6 7 8 9 10 11 12 13 14 15 16 17 18 19 20 21 22 23 24 25 26 27 28 29 30 31 32 33 34 35 36 37 38 39 40 41 42 43 44 45 46 47 48 49 50

000
ASUS43 KGLD 040108
RWRGLD

GOODLAND FORECAST AREA HOURLY WEATHER ROUNDUP
NATIONAL WEATHER SERVICE GOODLAND KS
700 PM MDT MON AUG 03 2015

...OFFICIAL OBSERVATIONS...

CITY           SKY/WX    TMP DP  RH WIND       PRES   REMARKS
GOODLAND KS    CLOUDY    73  57  57 W13       30.00R
HILL CITY KS   MOCLDY    88  66  48 SE6       29.91R
IMPERIAL NEB   MOCLDY    84  67  56 SE12      29.95S
MCCOOK NEB     MOCLDY    84  69  60 E10       29.92S
AKRON CO       PTSUNNY   76  48  37 S21G31    30.04R
BURLINGTON CO  RAIN      74  47  38 CALM      30.07R
LIMON CO       MOSUNNY   66  54  65 E13       30.12F
$$

...UNOFFICIAL OBSERVATIONS...

CITY           SKY/WX    TMP DP  RH WIND       PRES   REMARKS
COLBY KS       CLEAR     84  66  54 E7        29.98R
NORTON KS      CLEAR     86  54  32 SE7       29.91
SHARON SPRINGS   N/A     76  62  62 W5          N/A
KIT CARSON CO    N/A     67  59  74 MISG        N/A
YUMA CO          N/A     80  48  32 SW14        N/A
$$



USA.gov is the U.S. government's official web portal to all federal, state and local government web resources and services.